RH
100 70 54 55 89 91 84 67 78 71 70 79 55 55 41 38 41 42 34 29 32 32 27 32 26 22 23 22 20 15 18 20 18 20 22 21 24 30 25 25 24 23 26
100 85 85 64 75 85 100 99 99 91 87 88 76 62 47 47 42 47 41 32 31 31 26 22 23 24 21 22 22 19 17 18 18 20 20 22 24 24 28 26 23 22 23
100 100 86 100 87 74 84 59 74 95 89 86 92 83 64 57 46 44 49 34 26 23 22 21 23 21 20 23 24 21 20 23 19 21 20 21 23 22 22 22 25 21 23
100 98 94 85 100 85 80 51 50 62 85 89 100 94 83 66 53 40 52 46 29 25 24 27 29 22 26 24 22 25 29 25 26 25 21 21 21 21 25 25 29 30 29
100 100 100 100 100 100 100 80 51 64 71 59 80 65 85 68 57 45 44 52 42 31 25 32 27 22 23 25 28 29 29 31 31 31 27 27 27 28 26 26 23 24 26
100 100 100 100 100 100 100 100 75 58 50 42 68 51 50 58 59 57 53 50 47 46 40 37 29 27 24 22 32 36 36 34 30 31 34 29 29 28 29 27 24 21 23
77 100 100 94 84 100 100 100 100 79 70 42 46 81 78 63 66 74 70 56 42 44 45 36 28 27 28 28 28 36 40 33 34 34 34 34 38 34 30 29 22 31 26
79 74 79 93 95 66 100 100 100 100 91 74 58 53 76 94 79 80 68 63 49 41 44 40 47 25 23 25 24 31 44 51 52 42 33 46 34 31 30 33 31 23 29
60 69 76 89 96 88 89 94 99 98 100 92 93 97 82 94 94 77 56 42 40 43 44 51 42 36 29 25 25 28 33 44 50 49 35 34 32 36 26 26 31 41 39
80 100 88 100 96 51 84 88 89 78 93 100 82 78 75 76 95 98 82 64 48 29 33 32 44 36 35 31 34 26 26 27 30 39 44 36 29 24 33 39 31 36 41
60 100 100 92 100 88 100 92 83 56 44 89 70 62 80 80 69 86 86 92 79 48 30 35 36 42 46 40 40 52 34 30 36 37 36 42 34 29 23 23 33 35 42
42 97 100 100 100 100 100 100 99 61 46 79 77 69 83 98 89 84 73 76 87 76 65 32 24 36 40 49 54 47 52 56 50 46 35 35 42 42 31 33 26 41 44
73 100 100 100 100 100 100 100 100 100 68 60 71 72 50 85 91 74 76 74 81 74 71 57 34 33 27 42 34 40 44 46 71 73 53 39 40 41 46 33 38 40 41
100 100 100 100 100 100 100 100 100 100 97 83 87 98 73 81 81 77 73 70 64 64 68 70 58 49 43 56 61 48 46 37 44 59 62 52 48 40 32 41 45 43 50
88 100 100 100 100 100 100 100 100 100 100 100 100 100 100 96 90 96 84 72 73 70 71 64 55 49 42 34 34 29 40 43 26 27 24 30 39 44 46 41 44 40 54
14 69 100 100 100 100 100 100 100 100 100 100 100 100 100 100 100 100 100 100 100 88 80 60 62 71 56 53 36 33 33 32 35 39 34 39 42 50 52 53 59 54 62
15 14 21 100 100 100 100 100 100 100 100 100 100 100 100 100 100 100 100 100 100 100 100 99 95 95 87 54 52 46 39 42 48 53 50 56 55 61 71 56 73 59 78
17 15 14 37 100 100 100 100 100 100 100 100 100 100 100 100 100 100 100 100 100 100 100 100 100 100 86 100 95 82 90 67 90 84 70 76 82 76 70 77 78 78 95
19 16 15 14 19 96 100 100 100 100 100 100 100 100 100 100 100 100 100 100 100 100 100 96 100 100 100 100 100 100 100 100 99 100 100 100 91 74 80 80 94 82 89
22 20 17 16 14 13 16 75 100 100 100 100 100 100 100 100 100 100 100 100 100 100 100 100 100 100 100 100 100 100 100 100 100 100 100 100 95 97 87 94 95 100 98
25 23 20 18 16 14 12 13 35 46 53 97 100 100 100 100 100 100 100 100 100 100 100 100 100 100 100 100 100 100 100 100 100 100 100 100 98 98 100 100 100 100 100
24 24 23 19 17 16 14 13 13 12 12 13 62 100 100 100 100 100 100 100 100 100 100 100 100 100 100 100 100 100 100 100 100 100 100 100 100 100 100 100 100 100 100
20 23 25 24 20 18 16 16 14 14 13 13 13 16 58 94 100 100 100 100 100 100 100 100 100 100 100 100 100 100 100 100 100 100 100 100 100 100 100 100 100 100 100
19 20 23 25 24 22 19 17 16 14 14 14 14 14 15 43 99 100 100 100 100 100 100 100 100 100 100 100 100 100 100 100 100 100 100 100 100 100 100 100 100 100 100
19 20 20 21 22 23 23 21 19 17 16 15 15 16 16 16 41 100 100 95 98 100 100 100 100 100 100 100 100 100 100 100 100 100 100 100 100 100 100 100 100 100 100
21 20 19 19 19 20 21 23 23 22 19 17 16 16 16 16 16 15 20 66 100 95 79 82 91 98 100 100 100 100 100 100 100 100 100 100 100 98 99 100 98 76 79
Wind_Speed
89 85 81 73 73 69 64 63 62 60 58 56 53 52 48 43 43 41 37 37 36 32 30 31 28 28 26 23 23 22 21 26 26 27 30 29 30 34 32 33 34 36 38
95 91 83 78 77 77 72 68 67 66 63 58 59 55 54 49 50 48 45 44 44 38 31 28 28 30 29 28 27 27 29 28 28 28 30 32 34 36 37 37 37 35 36
102 97 88 85 84 82 76 74 71 70 70 69 63 59 57 56 53 54 54 49 47 48 44 34 34 34 32 30 31 32 34 31 31 32 31 35 36 37 39 41 40 42 43
108 102 97 93 92 87 84 80 79 76 76 73 71 70 65 64 60 56 60 58 58 52 52 48 44 43 40 41 40 39 37 35 36 34 34 38 40 41 43 44 46 49 49
112 104 101 102 99 98 93 87 86 85 81 79 77 76 75 72 70 67 62 66 63 63 60 56 51 50 48 47 48 48 47 46 44 44 41 42 43 43 45 47 49 51 49
110 112 109 108 107 105 102 92 91 92 88 84 84 79 78 78 76 71 69 65 69 69 69 65 60 56 55 52 52 54 49 52 50 51 51 49 49 49 48 50 50 53 53
115 116 114 115 113 111 108 103 97 94 92 91 90 86 83 81 79 78 75 73 73 72 72 71 68 64 62 61 58 57 57 56 57 56 56 56 57 55 55 54 54 55 55
114 116 121 117 119 115 113 112 102 104 97 96 94 92 90 87 85 83 81 79 79 76 75 75 77 74 68 67 64 64 64 62 63 61 62 62 60 61 61 62 61 60 62
117 116 121 120 119 119 120 115 107 107 105 101 99 100 97 93 90 88 85 85 85 82 80 80 80 79 77 73 71 71 69 69 69 69 65 66 67 69 65 65 67 69 67
114 116 121 120 123 124 126 120 113 112 111 108 106 102 103 99 96 95 94 91 90 89 86 87 85 88 84 82 79 76 74 72 73 76 74 72 70 73 74 78 73 72 72
121 116 118 121 117 123 125 126 121 113 117 113 109 107 107 104 102 99 99 97 97 95 93 90 93 94 93 89 88 83 81 80 78 79 81 81 76 75 75 75 79 81 78
125 125 116 120 119 122 121 120 122 124 120 116 113 114 112 111 109 107 104 102 102 102 100 96 95 96 97 95 93 90 90 86 83 82 81 85 86 85 84 82 83 83 81
126 131 134 121 123 122 124 123 118 116 120 119 118 115 114 115 113 113 111 109 109 109 107 104 102 98 100 96 95 94 94 96 93 89 88 87 90 89 91 90 91 89 89
133 130 136 131 128 124 126 126 120 114 123 124 121 123 122 120 116 118 116 114 114 112 113 112 112 106 104 107 107 105 103 103 102 100 99 99 98 95 98 95 93 94 97
136 134 136 135 130 130 128 130 125 117 121 121 119 114 114 115 116 118 121 119 119 120 120 117 114 113 112 108 110 109 109 106 107 105 102 100 99 104 105 102 99 99 98
135 142 140 137 136 133 130 131 129 124 121 125 122 117 115 113 110 112 111 113 115 115 117 121 118 116 113 112 109 112 110 109 111 113 115 115 111 109 107 109 107 107 103
136 138 142 145 144 136 137 135 130 129 129 128 125 122 118 115 112 108 111 114 113 111 113 112 111 115 115 119 115 115 115 119 118 118 116 116 117 115 114 117 112 114 108
136 137 139 146 152 147 140 143 139 137 133 132 130 127 124 124 112 112 116 119 119 115 117 115 115 116 117 111 113 119 118 121 120 119 121 123 120 122 121 117 119 116 114
133 136 138 138 146 155 154 148 144 145 137 132 137 132 129 127 123 119 122 124 123 125 125 121 120 115 117 114 117 118 117 118 121 120 124 122 126 125 128 122 119 123 122
132 134 137 138 140 143 147 157 157 150 140 145 140 138 135 133 131 126 124 126 126 128 123 122 120 118 116 115 117 120 123 124 126 127 128 128 125 125 126 126 125 127 130
132 132 135 137 138 139 141 145 152 154 149 143 141 141 141 140 138 136 131 130 130 128 124 124 126 127 123 124 131 128 128 130 129 135 132 129 128 127 128 130 132 136 140
130 132 133 135 137 137 139 140 144 147 146 141 142 142 142 146 147 146 144 139 140 140 140 129 132 131 135 137 136 135 134 135 136 136 135 137 134 133 133 135 141 143 142
128 130 132 134 135 136 138 139 139 141 145 144 143 141 141 144 148 150 152 154 152 149 148 149 147 142 144 147 143 140 143 144 145 145 140 139 141 142 146 146 147 147 147
126 128 130 131 133 135 136 137 138 138 141 142 143 142 142 143 146 149 149 151 152 154 155 154 158 155 157 156 155 153 150 151 149 149 146 148 151 151 150 150 149 147 147
120 124 128 130 131 132 133 135 136 136 138 140 142 143 143 144 148 154 152 153 152 154 158 160 161 160 159 159 158 157 159 157 156 156 154 157 157 158 160 161 159 162 160
115 119 123 128 131 132 132 133 134 136 138 138 138 141 143 145 145 147 149 154 159 158 157 158 159 161 162 164 165 165 166 164 164 163 162 165 166 164 162 160 157 157 158
Wind_Direction
237 235 235 234 235 238 242 247 249 251 252 251 246 247 245 249 250 248 250 256 257 258 266 269 266 272 273 278 282 290 295 306 307 314 317 319 324 327 330 332 336 340 342
236 237 235 234 235 238 240 242 246 249 251 250 248 248 249 248 250 249 250 254 259 254 259 269 263 262 266 269 277 282 287 296 299 305 308 313 316 320 325 327 330 334 338
236 236 236 236 236 238 242 244 245 247 249 251 249 245 248 250 255 253 250 258 259 258 260 261 267 269 267 269 275 283 288 292 294 302 298 308 314 315 317 322 324 325 328
235 236 236 238 238 238 241 242 245 245 245 249 249 246 247 249 253 259 257 256 261 261 264 265 263 272 271 278 280 283 285 292 294 299 290 301 305 307 311 314 318 320 322
237 238 238 239 240 239 240 242 245 247 245 246 247 248 248 251 254 257 259 256 257 262 266 266 264 268 273 276 278 284 288 292 294 296 297 299 303 306 307 311 313 315 317
234 237 239 238 241 240 241 241 242 245 247 248 249 249 250 251 253 256 259 259 256 261 266 269 270 272 272 275 275 277 284 283 289 291 293 294 296 300 304 306 307 309 313
237 236 238 239 237 240 241 241 241 242 245 248 248 248 249 251 253 255 256 257 260 262 263 267 268 270 271 273 275 278 279 281 283 286 289 292 293 294 297 299 304 302 305
239 239 240 241 240 238 239 240 242 245 245 247 248 250 247 248 250 253 254 256 258 261 262 264 267 270 270 270 272 275 276 278 279 281 285 287 290 291 293 293 296 299 300
239 241 243 243 241 241 242 239 241 244 245 245 248 250 250 250 250 252 253 257 260 260 262 262 264 267 268 269 270 272 275 276 278 279 281 284 286 286 292 294 295 295 298
236 237 240 242 242 243 245 242 240 242 244 245 245 247 249 250 251 251 254 255 257 260 260 263 264 265 268 269 269 271 271 276 277 278 279 282 286 287 287 286 289 292 292
236 231 236 239 240 242 245 245 242 244 246 243 246 248 250 252 252 253 253 256 257 258 259 261 263 264 265 266 268 269 271 272 274 277 279 278 280 284 287 289 289 289 290
234 229 231 234 236 240 242 245 248 247 245 242 246 248 251 252 252 254 255 257 258 258 259 260 263 265 266 265 267 269 272 271 272 275 278 278 278 280 282 285 286 289 291
232 229 232 230 234 236 239 242 245 246 245 246 245 248 248 252 254 255 256 257 257 257 259 258 261 264 263 263 265 268 271 274 271 273 275 278 280 280 282 283 283 286 287
229 229 231 233 234 235 238 239 240 240 247 248 249 248 248 251 253 254 256 257 257 258 258 260 262 264 264 266 264 265 267 269 269 270 272 275 275 279 279 282 283 283 285
226 227 227 231 232 233 235 238 239 239 243 246 248 248 252 253 256 257 258 258 257 258 261 260 260 264 264 264 266 267 269 269 269 268 270 272 276 279 278 283 285 283 286
228 227 226 229 231 231 234 237 237 239 241 245 247 248 249 250 253 257 258 259 261 262 263 263 264 264 266 267 268 268 268 271 271 272 275 278 279 280 282 284 286 287 293
231 230 229 228 229 230 232 235 236 238 240 244 246 247 247 249 251 250 253 256 256 259 261 264 266 267 270 272 270 270 271 272 275 277 281 283 285 287 286 288 291 291 291
232 233 231 230 229 231 232 233 234 237 238 241 244 246 245 248 247 248 250 252 256 257 259 263 263 266 270 269 273 275 276 279 280 282 283 284 286 287 288 288 290 293 294
234 234 233 233 232 232 233 232 234 236 238 240 243 243 245 245 245 244 250 251 253 255 256 259 260 262 264 265 267 271 270 274 278 280 281 282 284 286 286 288 289 289 290
235 235 235 234 234 235 235 236 236 238 239 240 241 243 242 242 246 246 247 249 251 254 254 256 258 259 260 262 265 265 268 270 273 276 277 279 280 281 284 285 285 286 289
235 236 236 236 236 236 236 236 237 239 241 240 239 239 239 240 241 242 243 247 251 250 251 252 254 257 260 260 265 266 269 271 271 274 274 275 277 279 280 281 284 286 287
236 236 237 237 237 238 238 238 238 239 240 241 241 240 241 240 240 244 245 247 244 248 251 248 251 252 258 262 262 261 262 265 269 273 276 274 276 277 278 280 283 284 286
237 237 238 238 239 238 239 239 240 241 241 241 242 242 243 243 243 245 246 247 247 247 249 251 252 255 257 258 259 264 266 267 269 270 271 272 272 274 275 278 280 281 283
237 238 239 239 240 240 240 240 241 242 242 243 244 244 243 244 244 245 245 246 248 249 250 253 254 253 255 255 257 259 261 264 265 266 267 269 272 273 274 275 276 277 277
238 238 239 240 241 241 241 242 242 243 243 244 245 246 246 245 245 245 247 248 248 249 250 251 253 254 256 257 258 260 261 262 263 265 265 266 267 268 270 273 275 275 276
239 239 240 240 240 241 242 242 243 243 244 245 246 247 247 248 248 247 248 249 249 250 252 253 254 255 257 258 259 260 261 262 263 264 265 267 269 270 270 272 274 275 276